Le nostre stazioni meteo in Italia

Pubblicità
Il mio iltempo24.it
Milano/Malpensa, Italia (16066): Temperatura & dewpoint: 19.05.2019 08:00:00 - 25.05.2019 08:00:00 (CEST)Milano/Malpensa, Italia (16066): velocità del vento: 19.05.2019 08:00:00 - 25.05.2019 08:00:00 (CEST)Milano/Malpensa, Italia (16066): direzione del vento: 19.05.2019 08:00:00 - 25.05.2019 08:00:00 (CEST)Milano/Malpensa, Italia (16066): reduced air pressure: 19.05.2019 08:00:00 - 25.05.2019 08:00:00 (CEST)Milano/Malpensa, Italia (16066): visibility: 19.05.2019 08:00:00 - 25.05.2019 08:00:00 (CEST)Milano/Malpensa, Italia (16066): precipitazioni: 19.05.2019 08:00:00 - 25.05.2019 08:00:00 (CEST)
Data & Tempo tt [°C] td [°C] ff [km/h] ff [kn] dd ppp [hPa] vv [km] rr [mm]
25.05.2019 08:00:00 - - - - - - - -
25.05.2019 07:00:00 13,0 11,0 4 2 - - 10 -
25.05.2019 06:00:00 12,0 11,0 2 1 - - 10 -
25.05.2019 05:00:00 12,2 11,0 4 2 - 1013,2 10 0,0
25.05.2019 04:00:00 14,0 12,0 2 1 - - 10 -
25.05.2019 03:00:00 14,0 11,0 2 1 - - 10 -
25.05.2019 02:00:00 16,5 12,4 5 3 NNO 1013,4 10 -
25.05.2019 01:00:00 17,0 12,0 4 2 - - 10 -
25.05.2019 00:00:00 18,0 12,0 9 5 SE - 10 -
24.05.2019 23:00:00 18,5 13,2 11 6 SE 1013,3 10 0,0
24.05.2019 22:00:00 20,0 13,0 2 1 - - 10 -
24.05.2019 21:00:00 23,0 13,0 9 5 O - 10 -
24.05.2019 20:00:00 23,0 12,3 13 7 O 1011,8 10 -
24.05.2019 19:00:00 24,0 12,0 11 6 OSO - 10 -
24.05.2019 18:00:00 25,0 11,0 5 3 - - 10 -
24.05.2019 17:00:00 24,5 12,5 8 4 S 1012,3 10 0,0
24.05.2019 16:00:00 25,0 12,0 8 4 - - 10 -
24.05.2019 15:00:00 24,0 13,0 11 6 O - 10 -
24.05.2019 14:00:00 23,1 13,4 13 7 SSO 1013,6 10 -
24.05.2019 13:00:00 23,0 13,0 5 3 SSE - 10 -
24.05.2019 12:00:00 21,0 13,0 8 4 E - 10 -
24.05.2019 11:00:00 20,6 13,1 5 3 - 1014,9 10 0,0
24.05.2019 10:00:00 18,0 13,0 4 2 - - 10 -
24.05.2019 09:00:00 17,0 13,0 4 2 - - 10 -
24.05.2019 08:00:00 14,7 12,1 4 2 - 1015,0 10 -
24.05.2019 07:00:00 12,0 11,0 2 1 - - 10 -
24.05.2019 06:00:00 11,0 11,0 2 1 - - 10 -
24.05.2019 05:00:00 11,2 10,4 2 1 - 1014,1 10 0,0
24.05.2019 04:00:00 11,0 10,0 9 5 N - 10 -
24.05.2019 03:00:00 13,0 11,0 4 2 E - 10 -
24.05.2019 02:00:00 13,2 10,9 2 1 - 1014,8 10 -
24.05.2019 01:00:00 17,0 12,0 9 5 SSO - 10 -
24.05.2019 00:00:00 18,0 12,0 11 6 SSO - 10 -
23.05.2019 23:00:00 18,8 12,6 11 6 SSO 1014,4 10 0,0
23.05.2019 22:00:00 18,0 12,0 4 2 - - 10 -
23.05.2019 21:00:00 22,0 9,0 5 3 SSO - 10 -
23.05.2019 20:00:00 23,4 9,8 9 5 SO 1013,2 10 -
23.05.2019 19:00:00 24,0 10,0 9 5 OSO - 10 -
23.05.2019 18:00:00 24,0 11,0 11 6 OSO - 10 -
23.05.2019 17:00:00 24,0 10,7 11 6 SO 1014,0 10 0,0
23.05.2019 16:00:00 24,0 11,0 15 8 SO - 10 -
23.05.2019 15:00:00 23,0 12,0 13 7 SO - 10 -
23.05.2019 14:00:00 23,3 11,1 8 4 - 1015,6 10 -
23.05.2019 13:00:00 22,0 13,0 11 6 SSO - 10 -
23.05.2019 12:00:00 21,0 15,0 5 3 SO - 10 -
23.05.2019 11:00:00 19,8 15,3 4 2 - 1017,0 10 0,0
23.05.2019 10:00:00 18,0 14,0 4 2 - - 10 -
23.05.2019 09:00:00 16,0 13,0 5 3 SO - 10 -
23.05.2019 08:00:00 13,9 12,0 5 3 SSO 1017,2 8 -
23.05.2019 07:00:00 12,0 11,0 5 3 N - 10 -
23.05.2019 06:00:00 11,0 11,0 4 2 - - 10 -
23.05.2019 05:00:00 10,2 9,8 5 3 E 1016,5 10 0,0
23.05.2019 04:00:00 12,0 11,0 8 4 NNE - 10 -
23.05.2019 03:00:00 13,0 13,0 2 1 - - 10 -
23.05.2019 02:00:00 14,5 13,8 5 3 O 1016,6 10 -
23.05.2019 01:00:00 14,0 13,0 5 3 NE - 10 -
23.05.2019 00:00:00 16,0 14,0 4 2 - - 10 -
22.05.2019 23:00:00 18,2 11,9 8 4 SSE 1016,3 10 0,0
22.05.2019 22:00:00 19,0 11,0 16 9 OSO - 10 -
22.05.2019 21:00:00 21,0 12,0 18 10 SSO - 10 -
22.05.2019 20:00:00 22,7 13,0 15 8 SSO 1013,3 10 -
22.05.2019 19:00:00 24,0 11,0 9 5 OSO - 10 -
22.05.2019 18:00:00 24,0 11,0 5 3 SO - 10 -
22.05.2019 17:00:00 24,1 11,3 13 7 O 1013,2 10 0,0
22.05.2019 16:00:00 24,0 11,0 15 8 OSO - 10 -
22.05.2019 15:00:00 23,0 13,0 13 7 SO - 10 -
22.05.2019 14:00:00 22,2 13,9 15 8 SO 1014,1 10 -
22.05.2019 13:00:00 21,0 13,0 13 7 OSO - 10 -
22.05.2019 12:00:00 20,0 13,0 9 5 SO - 10 -
22.05.2019 11:00:00 19,0 12,8 11 6 OSO 1014,5 10 0,0
22.05.2019 10:00:00 17,0 12,0 11 6 OSO - 10 -
22.05.2019 09:00:00 16,0 12,0 4 2 - - 10 -
22.05.2019 08:00:00 12,9 10,8 8 4 O 1014,2 10 -
22.05.2019 07:00:00 11,0 10,0 9 5 SO - 10 -
22.05.2019 06:00:00 11,0 10,0 9 5 NO - 10 -
22.05.2019 05:00:00 10,5 10,0 9 5 N 1013,1 10 0,0
22.05.2019 04:00:00 12,0 10,0 4 2 NO - 10 -
22.05.2019 03:00:00 11,0 10,0 5 3 NNE - 10 -
22.05.2019 02:00:00 14,2 10,1 8 4 O 1013,7 10 -
22.05.2019 01:00:00 15,0 11,0 8 4 OSO - 10 -
22.05.2019 00:00:00 15,0 11,0 11 6 S - 10 -
21.05.2019 23:00:00 15,0 11,0 9 5 S 1013,4 10 0,0
21.05.2019 22:00:00 16,0 11,0 9 5 SSO - 10 -
21.05.2019 21:00:00 19,0 12,0 16 9 SSO - 10 -
21.05.2019 20:00:00 20,3 12,9 18 10 SSO 1009,9 10 -
21.05.2019 19:00:00 - - - - - - - -
21.05.2019 18:00:00 23,0 14,0 22 12 SO - 10 -
21.05.2019 17:00:00 23,1 12,4 18 10 OSO 1009,1 10 0,0
21.05.2019 16:00:00 23,0 12,0 21 11 OSO - 10 -
21.05.2019 15:00:00 22,0 13,0 21 11 SO - 10 -
21.05.2019 14:00:00 20,8 13,2 16 9 SO 1009,0 10 -
21.05.2019 13:00:00 20,0 13,0 16 9 SO - 10 -
21.05.2019 12:00:00 19,0 14,0 13 7 SO - 10 -
21.05.2019 11:00:00 17,7 13,2 9 5 - 1009,1 10 0,0
21.05.2019 10:00:00 16,0 13,0 8 4 O - 10 -
21.05.2019 09:00:00 15,0 13,0 8 4 NO - 10 -
21.05.2019 08:00:00 12,5 11,8 8 4 NNE 1008,3 10 -
21.05.2019 07:00:00 8,0 8,0 4 2 NNE - 8 -
21.05.2019 06:00:00 7,0 7,0 5 3 N - 7 -
21.05.2019 05:00:00 7,8 7,7 8 4 N 1007,6 10 0,0
21.05.2019 04:00:00 9,0 9,0 2 1 - - 10 -
21.05.2019 03:00:00 9,0 9,0 5 3 NNE - 10 -
21.05.2019 02:00:00 9,9 9,3 4 2 NNE 1007,8 10 -
21.05.2019 01:00:00 12,0 10,0 2 1 - - 10 -
21.05.2019 00:00:00 13,0 10,0 4 2 - - 10 -
20.05.2019 23:00:00 14,1 10,6 9 5 SSO 1007,5 10 0,0
20.05.2019 22:00:00 15,0 11,0 13 7 SSO - 10 -
20.05.2019 21:00:00 16,0 12,0 13 7 SSO - 10 -
20.05.2019 20:00:00 16,4 12,5 13 7 SSO 1006,4 10 -
20.05.2019 19:00:00 17,0 13,0 9 5 SSO - 10 -
20.05.2019 18:00:00 17,0 13,0 13 7 SSO - 10 -
20.05.2019 17:00:00 17,0 12,0 9 5 SSO 1006,2 10 0,0
20.05.2019 16:00:00 17,0 12,0 9 5 SSO - 10 -
20.05.2019 15:00:00 17,0 13,0 9 5 OSO - 10 -
20.05.2019 14:00:00 16,2 12,2 9 5 SSO 1006,1 10 -
20.05.2019 13:00:00 15,0 13,0 11 6 OSO - 10 -
20.05.2019 12:00:00 15,0 13,0 8 4 OSO - 10 -
20.05.2019 11:00:00 13,9 12,5 9 5 SO 1005,5 10 0,0
20.05.2019 10:00:00 14,0 13,0 8 4 SO - 10 -
20.05.2019 09:00:00 13,0 13,0 5 3 O - 8 -
20.05.2019 08:00:00 12,2 12,2 4 2 - 1004,7 2,5 -
20.05.2019 07:00:00 12,0 12,0 4 2 ONO - 0,5 -
20.05.2019 06:00:00 11,0 11,0 2 1 - - 3,5 -
20.05.2019 05:00:00 11,0 11,0 0 0 N 1004,7 5 0,0
20.05.2019 04:00:00 11,0 11,0 5 3 NNE - 10 -
20.05.2019 03:00:00 11,0 11,0 5 3 N - 10 -
20.05.2019 02:00:00 11,8 11,6 4 2 N 1005,0 10 -
20.05.2019 01:00:00 - - - - - - - -
20.05.2019 00:00:00 13,0 12,0 8 4 N - 10 -
19.05.2019 23:00:00 12,8 12,4 9 5 N 1006,0 10 0,0
19.05.2019 22:00:00 13,0 13,0 9 5 N - 10 -
19.05.2019 21:00:00 13,0 13,0 8 4 N - 10 -
19.05.2019 20:00:00 13,7 13,1 5 3 N 1005,6 10 -
19.05.2019 19:00:00 14,0 13,0 5 3 NNE - 10 -
19.05.2019 18:00:00 15,0 12,0 8 4 SSE - 10 -
19.05.2019 17:00:00 15,2 12,8 9 5 SSO 1005,2 10 0,0
19.05.2019 16:00:00 15,0 12,0 4 2 - - 10 -
19.05.2019 15:00:00 14,0 13,0 4 2 - - 10 -
19.05.2019 14:00:00 13,5 12,5 8 4 S 1005,3 4,0 -
19.05.2019 13:00:00 14,0 13,0 9 5 N - 6 -
19.05.2019 12:00:00 13,0 13,0 9 5 N - 7 -
19.05.2019 11:00:00 13,1 11,7 8 4 N 1005,3 10 0,0
19.05.2019 10:00:00 12,0 12,0 8 4 NNO - 4,0 -
19.05.2019 09:00:00 12,0 11,0 4 2 N - 3,5 -
19.05.2019 08:00:00 11,6 11,4 4 2 - 1005,0 4,0 -

tt = Temperatura
td = dewpoint
ff = velocità del vento
dd = direzione del vento
ppp = reduced air pressure
vv = visibility
rr = precipitazioni

Stazioni seguenti

WeatherPro
AMSI
MeteoEarth